Regional Weather Roundup
Issued by NWS

Home | Current Version | Previous Version | Graphics & Text | Print | Product List | Glossary Off
Versions: 1 2 3 4 5 6 7 8 9 10 11 12 13 14 15 16 17 18 19 20 21 22 23 24 25 26 27 28 29 30 31 32 33 34 35 36 37 38 39 40 41 42 43 44 45 46 47 48 49 50

000
ASUS43 KTOP 251759
RWRKS

WEATHER ROUNDUP FOR KANSAS
NATIONAL WEATHER SERVICE GOODLAND KS
100 PM CDT FRI JUL 25 2014

NOTE:  "FAIR" INDICATES FEW OR NO CLOUDS BELOW 12,000 FEET WITH NO
SIGNIFICANT WEATHER AND/OR OBSTRUCTIONS TO VISIBILITY.

KSZ001>006-013>018-027>032-041>047-251900-
NORTHWEST KANSAS

CITY           SKY/WX    TMP DP  RH WIND       PRES   REMARKS
GOODLAND       MOSUNNY   91  59  33 N13       29.97R
6HR MIN TEMP:  69; 6HR MAX TEMP:  92;

HAYS           MOSUNNY  N/A N/A N/A SW8G16    29.80F
HILL CITY      SUNNY     99  62  29 VRB3      29.81S HX 100
6HR MIN TEMP:  80; 6HR MAX TEMP: 100;

RUSSELL        MOSUNNY   96  63  33 SW15      29.79F HX  97
6HR MIN TEMP:  78; 6HR MAX TEMP:  96;

$$

KSZ061>065-074>080-084>089-251900-
SOUTHWEST KANSAS

CITY           SKY/WX    TMP DP  RH WIND       PRES   REMARKS
DODGE CITY     SUNNY     96  58  27 SW18G25   29.87F HX  95
6HR MIN TEMP:  74; 6HR MAX TEMP:  96;

ELKHART          N/A     97  55  24 SW6         N/A  HX  95
GARDEN CITY    SUNNY     95  60  31 SW12      29.89F HX  95
6HR MIN TEMP:  73; 6HR MAX TEMP:  95;

GREAT BEND     SUNNY     99  64  32 SW20G28   29.80F HX 101
LIBERAL        SUNNY     99  59  26 SW16G24   29.93F HX  98
$$

KSZ066>073-081>083-090>101-251900-
SOUTHEAST KANSAS

CITY           SKY/WX    TMP DP  RH WIND       PRES   REMARKS
CHANUTE        SUNNY     90  72  55 SW16      29.90F HX  97
6HR MIN TEMP:  72; 6HR MAX TEMP:  90;

COFFEYVILLE    SUNNY     90  73  57 S18       29.91F HX  98
6HR MIN TEMP:  73; 6HR MAX TEMP:  91;

HUTCHINSON     MOSUNNY   96  66  37 SW22G30   29.83F HX  99
6HR MIN TEMP:  74; 6HR MAX TEMP:  96;

MEDICINE LODGE   N/A     96  66  37 S15G25    29.85F HX  99
NEWTON         SUNNY     97  64  34 SW23G32   29.88F HX  99
PARSONS        SUNNY     90  73  57 SW15G22   29.92F HX  98
6HR MIN TEMP:  72; 6HR MAX TEMP:  90;

WICHITA INTL   MOSUNNY   96  67  38 SW23G31   29.84F HX 100
6HR MIN TEMP:  73; 6HR MAX TEMP:  96;

WICHITA JABRA  SUNNY     97  68  38 SW21G32   29.85F HX 102
6HR MIN TEMP:  74; 6HR MAX TEMP:  97;

WINFIELD       SUNNY     94  72  48 SW21G30   29.89F HX 102
6HR MIN TEMP:  74; 6HR MAX TEMP:  94;

$$

KSZ007>012-019>026-033>040-048>060-102>105-251900-
NORTHEAST KANSAS

CITY           SKY/WX    TMP DP  RH WIND       PRES   REMARKS
CONCORDIA      SUNNY     95  66  38 SW15      29.77F HX  98
6HR MIN TEMP:  78; 6HR MAX TEMP:  96;

EMPORIA        SUNNY     94  68  42 SW24G33   29.85F HX  98
6HR MIN TEMP:  74; 6HR MAX TEMP:  94;

LAWRENCE       MOSUNNY   93  71  48 S13       29.82F HX 100
6HR MIN TEMP:  72; 6HR MAX TEMP:  96;

MANHATTAN      SUNNY    101  69  35 SW17      29.78S HX 107
6HR MIN TEMP:  77; 6HR MAX TEMP: 101;

OLATHE IND     MOSUNNY   93  70  46 S21G30    29.85F HX  99
6HR MIN TEMP:  70; 6HR MAX TEMP:  94;

OLATHE EXE     SUNNY     91  70  49 SW14      29.85F HX  96
6HR MIN TEMP:  70; 6HR MAX TEMP:  92;

SALINA         PTSUNNY  101  65  30 SW28G33   29.79S HX 104
6HR MIN TEMP:  78; 6HR MAX TEMP: 101;

TOPEKA BILLARD MOSUNNY   98  70  40 SW15G28   29.80F HX 105
6HR MIN TEMP:  78; 6HR MAX TEMP:  98;

TOPEKA FORBES  LGT RAIN  98  67  36 SW22G33   29.81F HX 102
6HR MIN TEMP:  76; 6HR MAX TEMP:  98; 6HR PCP: TRACE;

$$


USA.gov is the U.S. government's official web portal to all federal, state and local government web resources and services.